User: anonymous   Login
Location: Allentsteig
(48.6833°N, 15.3167°E)
Time: 10:29:46
(UTC+00:00)
Language:

Cosmos 2278 Rocket - Orbit

View from above orbital plane
View from above orbital plane
View from above satellite
View from above satellite

Ground track
Ground track

The orbit data is extracted from the following two-line orbital elements,

1 23088U 94023B   21209.90273440  .00000212  00000-0  13483-3 0  9999
2 23088  70.9990   8.0056 0004526 312.9770  47.0972 14.14691627407799
Epoch (UTC): 28 July 2021 21:39:56
Eccentricity: 0.0004526
inclination: 70.9990°
perigee height: 840 km
apogee height: 846 km
right ascension of ascending node: 8.0056°
argument of perigee: 312.9770°
revolutions per day: 14.14691627
mean anomaly at epoch: 47.0972°
orbit number at epoch: 40779

The dashed part of the orbit path shows where the satellite is in the earth's shadow,  

DLR